TimeCDT,TemperatureF,Dew PointF,Humidity,Sea Level PressureIn,VisibilityMPH,Wind Direction,Wind SpeedMPH,Gust SpeedMPH,PrecipitationIn,Events,Conditions,WindDirDegrees,DateUTC
12:15 AM,82.8,73.8,74,29.96,10.0,NE,9.2,-,N/A,Thunderstorm,Clear,40,2013-07-10 05:15:00
12:35 AM,82.0,73.8,76,29.97,10.0,NE,4.6,-,N/A,Thunderstorm,Thunderstorm,50,2013-07-10 05:35:00
12:55 AM,81.7,74.3,78,30.00,7.0,Calm,Calm,-,N/A,,Scattered Clouds,0,2013-07-10 05:55:00
1:15 AM,81.1,74.3,80,30.00,10.0,NNE,5.8,-,N/A,,Scattered Clouds,20,2013-07-10 06:15:00
1:35 AM,80.6,74.3,81,30.02,10.0,North,4.6,-,N/A,,Scattered Clouds,350,2013-07-10 06:35:00
1:55 AM,79.2,74.1,84,30.03,10.0,North,5.8,-,N/A,,Scattered Clouds,10,2013-07-10 06:55:00
2:15 AM,80.4,74.3,82,30.05,10.0,SSE,6.9,-,N/A,,Mostly Cloudy,160,2013-07-10 07:15:00
2:55 AM,80.6,73.0,78,30.04,10.0,ENE,3.5,-,N/A,,Overcast,70,2013-07-10 07:55:00
3:15 AM,79.7,72.7,79,30.03,10.0,NNE,8.1,-,N/A,,Scattered Clouds,30,2013-07-10 08:15:00
3:35 AM,79.2,72.5,80,30.03,10.0,NNE,9.2,-,N/A,,Clear,30,2013-07-10 08:35:00
3:55 AM,78.6,72.0,80,30.02,10.0,North,6.9,-,N/A,,Clear,10,2013-07-10 08:55:00
4:15 AM,77.5,71.1,80,30.03,10.0,NNE,8.1,-,N/A,,Clear,20,2013-07-10 09:15:00
4:35 AM,77.4,70.7,80,30.03,10.0,North,5.8,-,N/A,,Clear,360,2013-07-10 09:35:00
4:55 AM,76.1,70.7,83,30.04,10.0,NNW,6.9,-,N/A,,Clear,330,2013-07-10 09:55:00
5:15 AM,74.7,70.7,87,30.05,10.0,North,5.8,-,N/A,,Clear,350,2013-07-10 10:15:00
5:35 AM,73.9,70.7,90,30.04,10.0,North,5.8,-,N/A,,Clear,360,2013-07-10 10:35:00
5:55 AM,75.2,70.2,84,30.03,10.0,NNE,9.2,-,N/A,,Clear,20,2013-07-10 10:55:00
6:15 AM,75.0,70.2,85,30.03,10.0,NNE,9.2,-,N/A,,Clear,20,2013-07-10 11:15:00
6:35 AM,74.7,70.0,85,30.03,10.0,North,11.5,-,N/A,,Clear,10,2013-07-10 11:35:00
6:55 AM,75.2,69.1,81,30.02,10.0,NNE,15.0,18.4,N/A,,Clear,20,2013-07-10 11:55:00
7:15 AM,75.2,68.9,81,30.03,10.0,NNE,13.8,20.7,N/A,,Clear,30,2013-07-10 12:15:00
7:35 AM,75.7,68.7,79,30.04,10.0,NNE,9.2,17.3,N/A,,Clear,30,2013-07-10 12:35:00
7:55 AM,76.5,68.5,76,30.04,10.0,NE,9.2,-,N/A,,Clear,40,2013-07-10 12:55:00
8:15 AM,77.9,68.4,72,30.05,10.0,NNE,12.7,-,N/A,,Clear,30,2013-07-10 13:15:00
8:35 AM,78.8,68.2,70,30.05,10.0,NNE,16.1,20.7,N/A,,Clear,30,2013-07-10 13:35:00
8:55 AM,79.3,68.2,69,30.06,10.0,NE,15.0,20.7,N/A,,Clear,40,2013-07-10 13:55:00
9:15 AM,79.7,68.5,69,30.07,10.0,NNE,12.7,-,N/A,,Clear,30,2013-07-10 14:15:00
9:35 AM,80.6,68.2,66,30.07,10.0,NE,13.8,19.6,N/A,,Clear,50,2013-07-10 14:35:00
9:55 AM,81.7,68.0,63,30.08,10.0,NE,13.8,-,N/A,,Clear,40,2013-07-10 14:55:00
10:15 AM,82.4,66.0,57,30.09,10.0,ENE,11.5,-,N/A,,Clear,70,2013-07-10 15:15:00
10:35 AM,83.5,65.1,54,30.10,10.0,NE,10.4,16.1,N/A,,Clear,50,2013-07-10 15:35:00
10:55 AM,83.8,65.7,54,30.10,10.0,ENE,12.7,16.1,N/A,,Clear,70,2013-07-10 15:55:00
11:15 AM,83.8,63.3,50,30.10,10.0,NE,12.7,-,N/A,,Clear,50,2013-07-10 16:15:00
11:35 AM,85.1,63.5,48,30.09,10.0,ENE,12.7,-,N/A,,Clear,70,2013-07-10 16:35:00
11:55 AM,85.1,63.3,48,30.10,10.0,East,9.2,16.1,N/A,,Clear,80,2013-07-10 16:55:00
12:15 PM,85.8,62.1,45,30.10,10.0,ENE,8.1,18.4,N/A,,Clear,70,2013-07-10 17:15:00
12:35 PM,86.0,62.8,46,30.10,10.0,ENE,10.4,-,N/A,,Clear,60,2013-07-10 17:35:00
12:55 PM,86.2,62.2,45,30.10,10.0,East,9.2,-,N/A,,Clear,90,2013-07-10 17:55:00
1:15 PM,87.6,62.2,42,30.11,10.0,ENE,8.1,-,N/A,,Clear,70,2013-07-10 18:15:00
1:35 PM,87.4,62.1,42,30.11,10.0,ENE,10.4,-,N/A,,Clear,60,2013-07-10 18:35:00
1:55 PM,87.4,63.7,45,30.11,10.0,ENE,8.1,-,N/A,,Clear,70,2013-07-10 18:55:00
2:15 PM,87.8,63.5,44,30.10,10.0,East,8.1,-,N/A,,Clear,90,2013-07-10 19:15:00
2:35 PM,88.7,63.1,42,30.10,10.0,NE,6.9,-,N/A,,Clear,40,2013-07-10 19:35:00
2:55 PM,86.5,63.1,45,30.09,10.0,ENE,6.9,-,N/A,,Clear,70,2013-07-10 19:55:00
3:15 PM,88.3,63.3,43,30.09,10.0,ESE,6.9,-,N/A,,Clear,110,2013-07-10 20:15:00
3:35 PM,87.4,63.0,44,30.09,10.0,East,6.9,-,N/A,,Clear,80,2013-07-10 20:35:00
3:55 PM,87.8,62.4,43,30.08,10.0,ENE,4.6,-,N/A,,Clear,60,2013-07-10 20:55:00
4:15 PM,87.3,63.1,44,30.07,10.0,ESE,4.6,-,N/A,,Clear,120,2013-07-10 21:15:00
4:35 PM,86.5,63.0,45,30.06,10.0,East,8.1,-,N/A,,Clear,100,2013-07-10 21:35:00
4:55 PM,86.9,62.1,43,30.05,10.0,ENE,8.1,-,N/A,,Clear,60,2013-07-10 21:55:00
5:15 PM,86.9,64.0,46,30.04,10.0,ENE,8.1,-,N/A,,Clear,60,2013-07-10 22:15:00
5:35 PM,86.5,62.4,44,30.04,10.0,NE,8.1,-,N/A,,Clear,50,2013-07-10 22:35:00
5:55 PM,85.5,63.3,47,30.04,10.0,ENE,9.2,-,N/A,,Clear,60,2013-07-10 22:55:00
6:15 PM,85.1,63.3,48,30.04,10.0,NE,6.9,-,N/A,,Clear,40,2013-07-10 23:15:00
6:35 PM,86.2,63.1,46,30.04,10.0,ENE,5.8,-,N/A,,Clear,70,2013-07-10 23:35:00
6:55 PM,85.6,62.6,46,30.03,10.0,ENE,9.2,-,N/A,,Clear,70,2013-07-10 23:55:00
7:15 PM,84.7,63.9,49,30.03,10.0,ENE,9.2,-,N/A,,Clear,70,2013-07-11 00:15:00
7:35 PM,84.0,63.7,50,30.03,10.0,ENE,6.9,-,N/A,,Clear,70,2013-07-11 00:35:00
7:55 PM,83.3,64.2,52,30.02,10.0,East,6.9,-,N/A,,Clear,80,2013-07-11 00:55:00
8:15 PM,81.9,64.4,55,30.01,10.0,East,5.8,-,N/A,,Clear,90,2013-07-11 01:15:00
8:35 PM,80.8,64.8,58,30.03,10.0,ENE,5.8,-,N/A,,Clear,70,2013-07-11 01:35:00
8:55 PM,79.2,65.7,63,30.02,10.0,East,4.6,-,N/A,,Clear,90,2013-07-11 01:55:00
9:15 PM,77.5,66.4,68,30.02,10.0,ESE,4.6,-,N/A,,Clear,110,2013-07-11 02:15:00
9:35 PM,77.0,65.5,67,30.03,10.0,East,3.5,-,N/A,,Clear,80,2013-07-11 02:35:00
9:55 PM,75.7,66.2,72,30.04,10.0,ENE,5.8,-,N/A,,Clear,70,2013-07-11 02:55:00
10:15 PM,74.8,66.7,76,30.04,10.0,East,3.5,-,N/A,,Clear,100,2013-07-11 03:15:00
10:35 PM,73.9,67.5,80,30.05,10.0,East,3.5,-,N/A,,Clear,90,2013-07-11 03:35:00
10:55 PM,73.6,67.1,80,30.06,10.0,East,3.5,-,N/A,,Clear,100,2013-07-11 03:55:00
11:15 PM,73.6,67.1,80,30.07,10.0,ENE,4.6,-,N/A,,Clear,70,2013-07-11 04:15:00
11:35 PM,71.8,66.7,84,30.07,10.0,East,3.5,-,N/A,,Clear,80,2013-07-11 04:35:00
11:55 PM,71.1,66.6,86,30.07,10.0,East,3.5,-,N/A,,Clear,90,2013-07-11 04:55:00